Tracking 35030 objects as of 11-Aug-2026
HD Live streaming from Space Station
objects crossing your sky now

COSMOS 57 DEB


COSMOS 57 DEB is no longer on orbit


NORAD ID: 1179
Int'l Code: 1965-012CK
Launch date: February 22, 1965
Source: Commonwealth of Independent States (former USSR) (CIS)
Launch site: TYURATAM MISSILE AND SPACE COMPLEX (TTMTR)
Decay date: 1965-03-16

Note: This is SATELLITE DEBRIS
Your satellite tracking list
Your tracking list is empty




NASA's NSSDC Master Catalog

Two Line Element Set (TLE):
1 01179U 65012 CK 65064.17729779  .02442282 +10870-1 +00000-0 0  9993
2 01179 064.7693 262.4911 0241213 074.9288 287.7356 15.76831867001709
Source of the keplerian elements: AFSPC